Location: Banksville Park
(38.5557°N, 75.1182°W)
Time: 17:12:28
(UTC+00:00)

ATLAS 2AS CENTAUR R/B - Pass Details

Date: 19 September 2020
Orbit: 939 x 1273 km, 63.7° (Epoch: 27 October)

Event Time Altitude Azimuth Distance (km) Brightness Sun altitude
Rises 02:21:24 0° 223° (SW) 4,171 5.8 -36.8°
Reaches altitude 10° 02:24:12 10° 226° (SW) 3,230 5.2 -37.3°
Enters shadow 02:28:38 36° 241° (WSW) 1,889 4.0 -37.9°
Exits shadow 02:33:14 57° 345° (NNW) 1,480 3.4 -38.6°
Drops below altitude 10° 02:39:52 10° 28° (NNE) 3,242 5.3 -39.5°
Sets 02:42:42 0° 31° (NNE) 4,187 5.9 -39.9°
